EW9807 Weather Reports


time (UTC)temp
F
wind
direction
speed
knots
gust
knots
rain 1hr
in
rain 24hr
in
rain mn
in
humidity
%
barometer
mb
20260901024022 77 185 0.0 0.0 0.00 0.00 0.00 82 1017.7
20260901023521 77 185 0.0 0.0 0.00 0.00 0.00 82 1017.7
20260901023021 77 185 0.0 0.0 0.00 0.00 0.00 81 1017.7
20260901022521 77 185 0.0 0.0 0.00 0.00 0.00 81 1017.7
20260901022021 78 185 0.0 0.0 0.00 0.00 0.00 81 1017.6
20260901021527 78 185 0.0 0.0 0.00 0.00 0.00 81 1017.7
20260901021022 78 185 0.0 0.0 0.00 0.00 0.00 80 1017.6
20260901020521 78 185 0.0 0.0 0.00 0.00 0.00 80 1017.6
20260901020020 78 185 0.0 0.0 0.00 0.00 0.00 80 1017.5
20260901015521 78 185 0.0 0.0 0.00 0.00 0.00 79 1017.4
20260901015021 79 185 0.0 0.0 0.00 0.00 0.00 79 1017.4
20260901014520 79 185 0.0 0.0 0.00 0.00 0.00 77 1017.4
20260901014019 79 185 0.0 0.0 0.00 0.00 0.00 78 1017.4
20260901013520 79 185 0.0 0.0 0.00 0.00 0.00 77 1017.3
20260901013020 79 185 0.0 0.0 0.00 0.00 0.00 76 1017.2
20260901012526 79 185 0.0 0.0 0.00 0.00 0.00 76 1017.2
20260901012024 80 185 0.0 0.0 0.00 0.00 0.00 75 1017.1
20260901011526 80 185 0.0 0.0 0.00 0.00 0.00 75 1017.0
20260901011022 80 185 0.0 0.0 0.00 0.00 0.00 74 1016.9
20260901010519 80 185 0.0 0.0 0.00 0.00 0.00 73 1016.9
20260901010020 80 185 0.0 0.0 0.00 0.00 0.00 73 1016.8
20260901005519 80 185 0.0 0.0 0.00 0.00 0.00 73 1016.7
20260901005023 81 185 0.0 0.0 0.00 0.00 0.00 73 1016.7
20260901004518 81 185 0.0 0.0 0.00 0.00 0.00 73 1016.6
20260901004018 81 185 0.0 0.0 0.00 0.00 0.00 72 1016.6
20260901003518 81 185 0.0 0.0 0.00 0.00 0.00 72 1016.6
20260901003018 82 185 0.0 0.0 0.00 0.00 0.00 71 1016.5
20260901002520 82 185 0.0 0.0 0.00 0.00 0.00 71 1016.5
20260901002022 82 185 0.0 0.0 0.00 0.00 0.00 70 1016.5
20260901001520 83 185 0.0 0.0 0.00 0.00 0.00 69 1016.5
20260901001017 83 185 0.0 0.0 0.00 0.00 0.00 68 1016.5
20260901000517 83 185 0.0 0.0 0.00 0.00 0.00 68 1016.4
20260901000020 84 185 0.0 0.0 0.00 0.00 0.00 66 1016.3
20260831235517 84 185 0.0 0.0 0.00 0.00 0.00 66 1016.4
20260831235020 84 185 0.0 0.0 0.00 0.00 0.00 65 1016.3
20260831234516 85 185 0.0 0.0 0.00 0.00 0.00 66 1016.3
20260831234016 85 185 0.0 0.0 0.00 0.00 0.00 64 1016.4
20260831233516 86 185 0.0 0.0 0.00 0.00 0.00 62 1016.4
20260831233015 86 185 0.0 0.0 0.00 0.00 0.00 59 1016.4
20260831232515 86 185 0.0 0.0 0.00 0.00 0.00 58 1016.4
20260831232015 87 185 0.0 0.0 0.00 0.00 0.00 58 1016.4
20260831231524 87 185 0.0 0.0 0.00 0.00 0.00 56 1016.4
20260831231015 88 185 0.0 0.0 0.00 0.00 0.00 57 1016.4
20260831230517 88 185 0.0 0.0 0.00 0.00 0.00 56 1016.4
20260831230014 87 185 0.0 0.9 0.00 0.00 0.00 57 1016.5
20260831225514 88 185 0.0 0.9 0.00 0.00 0.00 57 1016.5
20260831225013 88 185 0.0 1.7 0.00 0.00 0.00 57 1016.5
20260831224540 88 168 0.0 1.7 0.00 0.00 0.00 56 1016.5
20260831224016 88 169 0.0 1.7 0.00 0.00 0.00 55 1016.5
20260831223513 88 91 0.0 0.0 0.00 0.00 0.00 56 1016.6
20260831223013 88 91 0.0 1.7 0.00 0.00 0.00 55 1016.5
20260831222512 88 91 0.0 1.7 0.00 0.00 0.00 56 1016.6
20260831222012 89 91 0.0 1.7 0.00 0.00 0.00 55 1016.6
20260831221512 89 141 0.0 2.6 0.00 0.00 0.00 56 1016.6
20260831221012 89 141 0.9 2.6 0.00 0.00 0.00 55 1016.7
20260831220512 88 70 0.0 1.7 0.00 0.00 0.00 56 1016.6
20260831220011 88 70 0.0 1.7 0.00 0.00 0.00 55 1016.7
20260831215517 89 70 0.0 2.6 0.00 0.00 0.00 55 1016.7
20260831215013 89 70 0.9 2.6 0.00 0.00 0.00 55 1016.7
20260831214511 88 101 0.0 1.7 0.00 0.00 0.00 56 1016.7
20260831214014 88 99 0.9 3.5 0.00 0.00 0.00 56 1016.8
20260831213511 89 99 0.9 3.5 0.00 0.00 0.00 56 1016.8
20260831213010 89 46 0.0 1.7 0.00 0.00 0.00 55 1016.8
20260831212509 89 6 0.9 2.6 0.00 0.00 0.00 55 1016.9
20260831212013 89 6 0.9 2.6 0.00 0.00 0.00 54 1016.9
20260831211508 90 65 0.9 2.6 0.00 0.00 0.00 53 1017.0
20260831211011 90 89 0.9 2.6 0.00 0.00 0.00 52 1017.0
20260831210507 90 134 0.9 3.5 0.00 0.00 0.00 52 1017.0
20260831210014 90 104 0.9 3.5 0.00 0.00 0.00 53 1017.0
20260831205506 89 248 0.0 2.6 0.00 0.00 0.00 53 1017.0
20260831205006 90 289 0.9 4.3 0.00 0.00 0.00 53 1017.0
20260831204506 90 153 1.7 4.3 0.00 0.00 0.00 52 1017.1
20260831204009 89 124 0.0 3.5 0.00 0.00 0.00 55 1017.0
20260831203506 90 124 0.9 3.5 0.00 0.00 0.00 54 1017.0
20260831203013 90 145 0.9 3.5 0.00 0.00 0.00 52 1017.2
20260831202505 89 262 0.0 1.7 0.00 0.00 0.00 55 1017.1
20260831202005 89 302 0.9 2.6 0.00 0.00 0.00 53 1017.2
20260831201504 89 302 0.9 2.6 0.00 0.00 0.00 55 1017.3
20260831201004 89 323 0.0 3.5 0.00 0.00 0.00 56 1017.3
20260831200503 89 323 1.7 3.5 0.00 0.00 0.00 56 1017.3
20260831200002 89 89 0.9 2.6 0.00 0.00 0.00 56 1017.4
20260831195502 89 158 0.0 2.6 0.00 0.00 0.00 58 1017.4
20260831195002 89 2 0.9 2.6 0.00 0.00 0.00 58 1017.5
20260831194503 90 2 0.9 3.5 0.00 0.00 0.00 57 1017.5
20260831194100 90 160 0.9 3.5 0.00 0.00 0.00 56 1017.6
20260831193600 89 165 0.9 3.5 0.00 0.00 0.00 58 1017.6
20260831193102 89 210 0.9 2.6 0.00 0.00 0.00 59 1017.7
20260831192559 88 359 0.0 1.7 0.00 0.00 0.00 59 1017.9
20260831192103 88 359 0.0 1.7 0.00 0.00 0.00 60 1017.9
20260831191559 88 359 0.9 2.6 0.00 0.00 0.00 60 1018.0
20260831191102 88 359 0.9 2.6 0.00 0.00 0.00 59 1018.0
20260831190601 89 359 0.9 3.5 0.00 0.00 0.00 59 1018.0
20260831190115 90 359 0.9 3.5 0.00 0.00 0.00 58 1018.1
20260831185558 90 113 0.0 2.6 0.00 0.00 0.00 58 1018.2
20260831185057 90 182 0.9 3.5 0.00 0.00 0.00 58 1018.1
20260831184559 90 150 0.0 3.5 0.00 0.00 0.00 59 1018.3
20260831184057 90 151 0.9 3.5 0.00 0.00 0.00 56 1018.3
20260831183557 90 163 0.9 3.5 0.00 0.00 0.00 59 1018.4
20260831183057 89 124 0.9 4.3 0.00 0.00 0.00 58 1018.5
20260831182557 89 131 0.0 4.3 0.00 0.00 0.00 59 1018.5
20260831182102 90 82 1.7 3.5 0.00 0.00 0.00 56 1018.5
20260831181557 90 127 1.7 4.3 0.00 0.00 0.00 57 1018.6
20260831181057 90 94 1.7 4.3 0.00 0.00 0.00 57 1018.7
20260831180555 89 90 0.9 4.3 0.00 0.00 0.00 59 1018.7
20260831180055 90 145 1.7 4.3 0.00 0.00 0.00 59 1018.8
20260831175555 89 56 0.9 4.3 0.00 0.00 0.00 60 1018.9
20260831175053 90 86 0.9 2.6 0.00 0.00 0.00 60 1018.9
20260831174553 89 89 0.0 3.5 0.00 0.00 0.00 60 1019.0
20260831174054 88 3 0.0 2.6 0.00 0.00 0.00 59 1019.0
20260831173552 89 328 1.7 3.5 0.00 0.00 0.00 61 1019.0
20260831173051 89 127 0.9 3.5 0.00 0.00 0.00 62 1019.1
20260831172550 88 151 0.0 1.7 0.00 0.00 0.00 63 1019.2
20260831172050 88 144 0.0 2.6 0.00 0.00 0.00 63 1019.3
20260831171549 88 93 0.0 2.6 0.00 0.00 0.00 64 1019.3
20260831171048 88 85 0.9 2.6 0.00 0.00 0.00 65 1019.4
20260831170548 87 307 0.0 2.6 0.00 0.00 0.00 64 1019.3
20260831170047 87 267 0.9 1.7 0.00 0.00 0.00 66 1019.3
20260831165545 86 210 0.9 1.7 0.00 0.00 0.00 68 1019.4
20260831165044 85 209 0.0 1.7 0.00 0.00 0.00 70 1019.4
20260831164544 85 32 0.9 2.6 0.00 0.00 0.00 68 1019.4
20260831164044 86 32 0.9 2.6 0.00 0.00 0.00 69 1019.5
20260831163544 85 53 0.9 1.7 0.00 0.00 0.00 70 1019.4
20260831163044 84 55 0.0 1.7 0.00 0.00 0.00 70 1019.5
20260831162548 85 56 0.9 2.6 0.00 0.00 0.00 69 1019.6
20260831162046 86 262 0.9 2.6 0.00 0.00 0.00 68 1019.6
20260831161543 85 293 1.7 2.6 0.00 0.00 0.00 69 1019.7
20260831161045 85 232 0.9 2.6 0.00 0.00 0.00 71 1019.8
20260831160545 83 242 0.9 2.6 0.00 0.00 0.00 73 1019.8
20260831160044 83 278 0.9 2.6 0.00 0.00 0.00 72 1019.9
20260831155542 84 165 0.0 2.6 0.00 0.00 0.00 70 1019.9
20260831155041 85 164 0.9 2.6 0.00 0.00 0.00 72 1019.9
20260831154606 86 164 0.9 3.5 0.00 0.00 0.00 69 1019.9
20260831154040 86 128 0.0 3.5 0.00 0.00 0.00 71 1019.9
20260831153538 85 138 1.7 3.5 0.00 0.00 0.00 71 1019.9
20260831153038 85 115 0.9 3.5 0.00 0.00 0.00 73 1020.0
20260831152538 85 77 0.9 2.6 0.00 0.00 0.00 72 1020.0
20260831152036 84 133 0.0 2.6 0.00 0.00 0.00 75 1020.0
20260831151546 83 23 0.0 1.7 0.00 0.00 0.00 76 1020.0
20260831151035 83 119 0.0 1.7 0.00 0.00 0.00 76 1020.0
20260831150533 83 129 0.0 1.7 0.00 0.00 0.00 77 1019.9
20260831150031 82 127 0.0 2.6 0.00 0.00 0.00 77 1019.8
20260831145531 82 127 0.9 2.6 0.00 0.00 0.00 80 1019.8
20260831145032 80 150 0.0 0.9 0.00 0.00 0.00 82 1019.8
20260831144530 80 150 0.0 1.7 0.00 0.00 0.00 81 1019.8
20260831144028 80 150 0.0 1.7 0.00 0.00 0.00 82 1019.7
20260831143528 80 154 0.0 2.6 0.00 0.00 0.00 81 1019.7
20260831143030 80 154 0.0 2.6 0.00 0.00 0.00 82 1019.7
20260831142528 80 101 0.0 1.7 0.00 0.00 0.00 82 1019.7
20260831142028 80 101 0.0 1.7 0.00 0.00 0.00 83 1019.8
20260831141526 80 101 0.0 2.6 0.00 0.00 0.00 82 1019.7
20260831141026 79 166 0.9 2.6 0.00 0.00 0.00 83 1019.8
20260831140524 79 168 0.0 2.6 0.00 0.00 0.00 85 1019.8
20260831140023 79 168 0.9 2.6 0.00 0.00 0.00 84 1019.8
20260831135521 78 159 0.0 2.6 0.00 0.00 0.00 85 1019.8
20260831135020 78 160 0.9 2.6 0.00 0.00 0.00 86 1019.8
20260831134522 78 146 0.0 2.6 0.00 0.00 0.00 86 1019.7
20260831134018 77 160 0.0 2.6 0.00 0.00 0.00 87 1019.8
20260831133518 77 140 0.0 2.6 0.00 0.00 0.00 88 1019.9
20260831133016 77 136 0.0 0.0 0.00 0.00 0.00 89 1020.0
20260831132519 76 184 0.0 0.0 0.00 0.00 0.00 90 1020.0
20260831132014 76 184 0.0 0.0 0.00 0.00 0.00 90 1019.9
20260831131514 76 184 0.0 0.0 0.00 0.00 0.00 90 1020.0
20260831131014 75 184 0.0 0.0 0.00 0.00 0.00 91 1020.0
20260831130513 75 184 0.0 0.0 0.00 0.00 0.00 92 1020.0
20260831130013 75 184 0.0 0.0 0.00 0.00 0.00 92 1020.0
20260831125515 75 184 0.0 0.0 0.00 0.00 0.00 93 1019.9
20260831125012 74 184 0.0 0.0 0.00 0.00 0.00 94 1019.9
20260831124524 74 184 0.0 0.0 0.00 0.00 0.00 94 1020.0
20260831124010 73 184 0.0 0.0 0.00 0.00 0.00 95 1019.9
20260831123509 73 184 0.0 0.0 0.00 0.00 0.00 95 1019.9
20260831123009 73 184 0.0 0.0 0.00 0.00 0.00 95 1019.9
20260831122508 72 184 0.0 0.0 0.00 0.00 0.00 95 1019.9
20260831122008 72 184 0.0 0.0 0.00 0.00 0.00 95 1019.8
20260831121506 72 184 0.0 0.0 0.00 0.00 0.00 95 1019.8
20260831121006 72 184 0.0 0.0 0.00 0.00 0.00 95 1019.6
20260831120507 72 184 0.0 0.0 0.00 0.00 0.00 95 1019.6
20260831120004 72 184 0.0 0.0 0.00 0.00 0.00 95 1019.5
20260831115503 71 184 0.0 0.0 0.00 0.00 0.00 95 1019.5
20260831115003 71 184 0.0 0.0 0.00 0.00 0.00 95 1019.5
20260831114503 71 184 0.0 0.0 0.00 0.00 0.00 95 1019.4
20260831114003 71 184 0.0 0.0 0.00 0.00 0.00 95 1019.4
20260831113502 71 184 0.0 0.0 0.00 0.00 0.00 95 1019.4
20260831113001 71 184 0.0 0.0 0.00 0.00 0.00 95 1019.3
20260831112600 71 184 0.0 0.0 0.00 0.00 0.00 95 1019.3
20260831112059 71 184 0.0 0.0 0.00 0.00 0.00 95 1019.2
20260831111600 71 184 0.0 0.0 0.00 0.00 0.00 95 1019.1
20260831111058 71 184 0.0 0.0 0.00 0.00 0.00 95 1019.1
20260831110600 71 184 0.0 0.0 0.00 0.00 0.00 95 1019.0
20260831110105 71 184 0.0 0.0 0.00 0.00 0.00 95 1019.0
20260831105558 71 184 0.0 0.0 0.00 0.00 0.00 95 1019.0
20260831105057 72 184 0.0 0.0 0.00 0.00 0.00 95 1018.9
20260831104557 72 184 0.0 0.0 0.00 0.00 0.00 95 1019.0
20260831104057 72 184 0.0 0.0 0.00 0.00 0.00 95 1018.9
20260831103559 72 184 0.0 0.0 0.00 0.00 0.00 95 1018.9
20260831103056 72 184 0.0 0.0 0.00 0.00 0.00 95 1018.9
20260831102558 72 184 0.0 0.0 0.00 0.00 0.00 95 1018.9
20260831102056 72 184 0.0 0.0 0.00 0.00 0.00 95 1018.9
20260831101601 72 184 0.0 0.0 0.00 0.00 0.00 94 1018.8
20260831101055 72 184 0.0 0.0 0.00 0.00 0.00 94 1018.8
20260831100553 72 184 0.0 0.0 0.00 0.00 0.00 95 1018.6
20260831100106 72 184 0.0 0.0 0.00 0.00 0.00 95 1018.6
20260831095554 72 184 0.0 0.0 0.00 0.00 0.00 94 1018.5
20260831095053 72 184 0.0 0.0 0.00 0.00 0.00 94 1018.5
20260831094614 72 184 0.0 0.0 0.00 0.00 0.00 94 1018.6
20260831094053 72 184 0.0 0.0 0.00 0.00 0.00 94 1018.6
20260831093551 72 184 0.0 0.0 0.00 0.00 0.00 94 1018.6
20260831093055 72 184 0.0 0.0 0.00 0.00 0.00 94 1018.5
20260831092551 72 184 0.0 0.0 0.00 0.00 0.00 94 1018.5
20260831092051 72 184 0.0 0.0 0.00 0.00 0.00 94 1018.5
20260831091611 72 184 0.0 0.0 0.00 0.00 0.00 94 1018.5
20260831091052 72 184 0.0 0.0 0.00 0.00 0.00 94 1018.6
20260831090551 72 184 0.0 0.0 0.00 0.00 0.00 94 1018.4
20260831090051 72 184 0.0 0.0 0.00 0.00 0.00 94 1018.5
20260831085550 72 184 0.0 0.0 0.00 0.00 0.00 94 1018.4
20260831085050 72 184 0.0 0.0 0.00 0.00 0.00 94 1018.4
20260831084551 72 184 0.0 0.0 0.00 0.00 0.00 94 1018.4
20260831084048 72 184 0.0 0.0 0.00 0.00 0.00 94 1018.4
20260831083548 72 184 0.0 0.0 0.00 0.00 0.00 94 1018.3
20260831083047 72 184 0.0 0.0 0.00 0.00 0.00 93 1018.3
20260831082547 72 184 0.0 0.0 0.00 0.00 0.00 93 1018.2
20260831082047 72 184 0.0 0.0 0.00 0.00 0.00 94 1018.2
20260831081547 72 184 0.0 0.0 0.00 0.00 0.00 93 1018.2
20260831081047 72 184 0.0 0.0 0.00 0.00 0.00 94 1018.2
20260831080546 72 184 0.0 0.0 0.00 0.00 0.00 94 1018.1
20260831080047 72 184 0.0 0.0 0.00 0.00 0.00 93 1018.1
20260831075547 72 184 0.0 0.0 0.00 0.00 0.00 93 1018.0
20260831075049 72 184 0.0 0.0 0.00 0.00 0.00 93 1017.9
20260831074545 72 184 0.0 0.0 0.00 0.00 0.00 93 1017.9
20260831074045 72 184 0.0 0.0 0.00 0.00 0.00 93 1017.9
20260831073545 72 184 0.0 0.0 0.00 0.00 0.00 93 1017.8
20260831073046 72 184 0.0 0.0 0.00 0.00 0.00 93 1017.9
20260831072546 72 184 0.0 0.0 0.00 0.00 0.00 93 1017.8
20260831072043 73 184 0.0 0.0 0.00 0.00 0.00 93 1017.8
20260831071604 73 184 0.0 0.0 0.00 0.00 0.00 92 1017.9
20260831071047 73 184 0.0 0.0 0.00 0.00 0.00 92 1017.9
20260831070543 73 184 0.0 0.0 0.00 0.00 0.00 92 1017.8
20260831070042 73 184 0.0 0.0 0.00 0.00 0.00 92 1017.8
20260831065541 73 184 0.0 0.0 0.00 0.00 0.00 92 1017.9
20260831065042 73 184 0.0 0.0 0.00 0.00 0.00 92 1017.9
20260831064541 73 184 0.0 0.0 0.00 0.00 0.00 92 1018.0
20260831064040 73 184 0.0 0.0 0.00 0.00 0.00 92 1018.0
20260831063541 73 184 0.0 0.0 0.00 0.00 0.00 92 1018.0
20260831063041 73 184 0.0 0.0 0.00 0.00 0.00 92 1018.1
20260831062540 73 184 0.0 0.0 0.00 0.00 0.00 91 1018.1
20260831062039 73 184 0.0 0.0 0.00 0.00 0.00 91 1018.1
20260831061539 73 184 0.0 0.0 0.00 0.00 0.00 91 1018.1
20260831061037 74 184 0.0 0.0 0.00 0.00 0.00 91 1018.2
20260831060537 74 184 0.0 0.0 0.00 0.00 0.00 91 1018.2
20260831060044 74 184 0.0 0.0 0.00 0.00 0.00 91 1018.2
20260831055537 74 184 0.0 0.0 0.00 0.00 0.00 91 1018.2
20260831055036 74 184 0.0 0.0 0.00 0.00 0.00 90 1018.2
20260831054536 74 184 0.0 0.0 0.00 0.00 0.00 90 1018.2
20260831054036 74 184 0.0 0.0 0.00 0.00 0.00 90 1018.1
20260831053536 74 184 0.0 0.0 0.00 0.00 0.00 90 1018.0
20260831053046 74 184 0.0 0.0 0.00 0.00 0.00 90 1017.9
20260831052535 74 184 0.0 0.0 0.00 0.00 0.00 90 1017.9
20260831052034 74 184 0.0 0.0 0.00 0.00 0.00 90 1017.9
20260831051537 74 184 0.0 0.0 0.00 0.00 0.00 90 1017.9
20260831051033 74 184 0.0 0.0 0.00 0.00 0.00 90 1018.0
20260831050533 74 184 0.0 0.0 0.00 0.00 0.00 90 1018.1
20260831050032 74 184 0.0 0.0 0.00 0.00 0.00 89 1018.1
20260831045531 75 184 0.0 0.0 0.00 0.00 0.00 89 1018.1
20260831045030 75 184 0.0 0.0 0.00 0.00 0.00 89 1018.0
20260831044530 75 184 0.0 0.0 0.00 0.00 0.00 89 1018.1
20260831044031 75 184 0.0 0.0 0.00 0.00 0.00 88 1017.9
20260831043530 75 184 0.0 0.0 0.00 0.00 0.00 88 1018.0
20260831043029 75 184 0.0 0.0 0.00 0.00 0.00 88 1017.9
20260831042528 75 184 0.0 0.0 0.00 0.00 0.00 88 1018.1
20260831042028 75 184 0.0 0.0 0.00 0.00 0.00 88 1018.0
20260831041528 75 184 0.0 0.0 0.00 0.00 0.00 88 1018.0
20260831041030 76 184 0.0 0.0 0.00 0.00 0.00 88 1018.1
20260831040528 76 184 0.0 0.0 0.00 0.00 0.00 87 1018.2
20260831040027 76 184 0.0 0.0 0.00 0.00 0.00 87 1018.1
20260831035525 76 184 0.0 0.0 0.00 0.00 0.00 87 1018.2
20260831035025 76 184 0.0 0.0 0.00 0.00 0.00 87 1018.2
20260831034525 76 184 0.0 0.0 0.00 0.00 0.00 87 1018.2
20260831034025 76 184 0.0 0.0 0.00 0.00 0.00 86 1018.3
20260831033525 76 184 0.0 0.0 0.00 0.00 0.00 86 1018.4
20260831033032 76 184 0.0 0.0 0.00 0.00 0.00 86 1018.3
20260831032525 76 184 0.0 0.0 0.00 0.00 0.00 85 1018.4
20260831032028 77 184 0.0 0.0 0.00 0.00 0.00 85 1018.5
20260831031527 77 184 0.0 0.0 0.00 0.00 0.00 85 1018.5
20260831031027 77 184 0.0 0.0 0.00 0.00 0.00 84 1018.5
20260831030524 77 184 0.0 0.0 0.00 0.00 0.00 84 1018.4
20260831030024 77 184 0.0 0.0 0.00 0.00 0.00 84 1018.5
20260831025523 77 184 0.0 0.0 0.00 0.00 0.00 84 1018.5
20260831025023 77 184 0.0 0.0 0.00 0.00 0.00 84 1018.5
20260831024524 77 184 0.0 0.0 0.00 0.00 0.00 83 1018.5